TimeMST,TemperatureF,Dew PointF,Humidity,Sea Level PressureIn,VisibilityMPH,Wind Direction,Wind SpeedMPH,Gust SpeedMPH,PrecipitationIn,Events,Conditions,WindDirDegrees,DateUTC
12:06 AM,28.4,24.8,86,30.36,10.0,Calm,Calm,-,N/A,,Overcast,0,2012-11-13 07:06:00
12:53 AM,28.0,26.1,92,30.45,10.0,Calm,Calm,-,N/A,,Overcast,0,2012-11-13 07:53:00
1:53 AM,28.0,26.1,92,30.44,10.0,Calm,Calm,-,N/A,,Overcast,0,2012-11-13 08:53:00
2:53 AM,28.0,26.1,92,30.45,7.0,NE,3.5,-,0.01,Snow,Light Snow,50,2012-11-13 09:53:00
3:53 AM,28.0,26.1,92,30.45,10.0,Calm,Calm,-,0.00,,Overcast,0,2012-11-13 10:53:00
4:00 AM,28.4,24.8,86,30.36,10.0,ENE,3.5,-,N/A,,Overcast,60,2012-11-13 11:00:00
4:12 AM,28.4,26.6,93,30.36,10.0,NE,3.5,-,N/A,,Overcast,40,2012-11-13 11:12:00
5:53 AM,28.0,25.0,88,30.46,10.0,ENE,3.5,-,0.00,,Overcast,60,2012-11-13 12:53:00
6:53 AM,28.0,25.0,88,30.47,10.0,Calm,Calm,-,N/A,,Overcast,0,2012-11-13 13:53:00
7:43 AM,28.4,24.8,86,30.37,10.0,ENE,3.5,-,N/A,,Overcast,70,2012-11-13 14:43:00
7:53 AM,28.9,26.1,89,30.47,10.0,NE,3.5,-,N/A,,Overcast,50,2012-11-13 14:53:00
8:08 AM,28.4,26.6,93,30.37,10.0,Calm,Calm,-,N/A,,Overcast,0,2012-11-13 15:08:00
8:53 AM,30.0,26.1,85,30.47,10.0,Calm,Calm,-,N/A,,Overcast,0,2012-11-13 15:53:00
9:53 AM,30.0,26.1,85,30.47,10.0,NE,3.5,-,N/A,,Overcast,40,2012-11-13 16:53:00
10:53 AM,30.0,26.1,85,30.48,10.0,NE,4.6,-,N/A,,Overcast,40,2012-11-13 17:53:00
11:01 AM,30.2,26.6,86,30.38,10.0,NE,4.6,-,N/A,,Overcast,50,2012-11-13 18:01:00
11:16 AM,30.2,26.6,86,30.37,10.0,NE,3.5,-,N/A,,Overcast,40,2012-11-13 18:16:00
11:53 AM,30.9,27.0,85,30.45,10.0,NE,4.6,-,0.00,,Overcast,50,2012-11-13 18:53:00
12:53 PM,30.9,27.0,85,30.43,10.0,NE,4.6,-,N/A,,Overcast,40,2012-11-13 19:53:00
1:53 PM,30.9,27.0,85,30.42,10.0,NE,5.8,-,N/A,,Overcast,50,2012-11-13 20:53:00
2:14 PM,32.0,28.4,87,30.32,10.0,ENE,5.8,-,N/A,,Overcast,70,2012-11-13 21:14:00
2:33 PM,32.0,28.4,87,30.31,10.0,ENE,4.6,-,N/A,,Overcast,60,2012-11-13 21:33:00
2:53 PM,32.0,28.0,85,30.40,10.0,NE,6.9,-,N/A,,Overcast,50,2012-11-13 21:53:00
3:53 PM,32.0,28.0,85,30.39,10.0,NE,5.8,-,N/A,,Overcast,50,2012-11-13 22:53:00
4:53 PM,32.0,28.0,85,30.38,10.0,NE,3.5,-,N/A,,Overcast,40,2012-11-13 23:53:00
5:13 PM,32.0,28.4,87,30.29,10.0,NE,3.5,-,N/A,,Overcast,50,2012-11-14 00:13:00
5:22 PM,32.0,28.4,87,30.29,5.0,NE,4.6,-,0.00,Snow,Light Snow,50,2012-11-14 00:22:00
5:51 PM,30.2,28.4,93,30.29,2.0,ENE,5.8,-,0.00,Snow,Light Snow,60,2012-11-14 00:51:00
5:53 PM,30.9,28.9,92,30.38,2.0,ENE,5.8,-,0.00,Snow,Light Snow,60,2012-11-14 00:53:00
6:11 PM,30.2,28.4,93,30.29,4.0,NE,4.6,-,0.00,Snow,Light Snow,50,2012-11-14 01:11:00
6:53 PM,30.9,28.9,92,30.37,10.0,NE,3.5,-,0.00,,Overcast,40,2012-11-14 01:53:00
7:16 PM,30.2,28.4,93,30.27,10.0,ENE,6.9,-,N/A,,Overcast,60,2012-11-14 02:16:00
7:53 PM,30.9,28.9,92,30.35,10.0,NNE,5.8,-,N/A,,Overcast,30,2012-11-14 02:53:00
8:53 PM,30.9,30.0,96,30.34,10.0,NE,4.6,-,N/A,,Overcast,50,2012-11-14 03:53:00
9:53 PM,30.9,30.0,96,30.33,10.0,NE,4.6,-,N/A,,Overcast,50,2012-11-14 04:53:00
10:53 PM,30.9,30.0,96,30.32,10.0,NE,4.6,-,N/A,,Overcast,40,2012-11-14 05:53:00
11:53 PM,30.9,28.9,92,30.31,10.0,Calm,Calm,-,N/A,,Overcast,0,2012-11-14 06:53:00